COSMOS 249 DEB, 6752

Orbit data source: Space-Track

COSMOS 249 DEB, 6752 is space debris in LEO originally from a launch on Sun, 20 Oct 1968 UTC launched from the Tyuratam Missile And Space Complex (TTMTR). Debris objects in space refer to the collection of defunct objects orbiting the Earth. Examples of debris include non-operational satellites, rocket bodies, and fragments generated from explosions, collisions, or faulty payload assembly.

Loading next visibility...
Identifier
6752, 1968-091CJ
Orbit
LEO
Country
Flag of CISCIS
Related business
Manufacturer
Unknown
Mission
Spacecraft
Bus & Motor
Unknown
Mass
Unknown
Launch date (UTC)
1968-10-20 (58 years ago)
Launch vehicle
Unknown
Launch site
Tyuratam Missile And Space Complex (TTMTR)
Object type
Payload
Rocket body
Debris
Shape & HBR
Unknown shape, 0.1 m
Radar Cross Section
Medium (>0.1 m² and <1 m²)

Expand to show TLE details & history
Last TLE update: 15 hours ago

TLE from 15 hours ago
0 COSMOS 249 DEB
1 06752U 68091CJ  26174.92488485  .00001586  00000-0  14760-2 0  9992
2 06752  62.2740 121.4043 0643465 140.0676 224.9540 13.17315450660154
Epoch: 2026-06-23T22:11Z
TLE epoch observation values (Epoch: 2026-06-23T22:11:50.051Z)
Latitude
0.00002°
Longitude
-123.6437°
Altitude
1,556.168 km
Speed
6.92 km/s
True Right ascension
08h 05m 37s
True Declination
0° 00' 00"
Sunlit
Object was in daylight at epoch
Visualization orbit readout
Latitude
Unknown
Longitude
Unknown
Altitude
Unknown
Speed
Unknown
Apparent Right ascension
Unknown
Apparent Declination
Unknown
Sunlit
N/A
Visualization observer readout
Local Sidereal Time
00:17:10
Azimuth
Unknown
Elevation
Unknown
Doppler factor
Unknown
Orbital elements
Apogee altitude
1,681.209 km
Perigee altitude
706.732 km
Semi-major axis
7,572.107 km
Eccentricity
0.06435
Inclination
62.274°
RAAN
121.4043°
Arg. of periapsis
140.0676°
True anomaly
220.03143°
Mean anomaly
224.954°
Eccentric anomaly
222.46491°
Mean motion
3.29396 °/min
Orbital period
109.29 mins
BSTAR
0.001476
Loading maneuver chart data...
Computing Atmospheric mass density...
Loading historical data...
Loading historical data...
Loading historical data...
Loading historical data...
Loading historical data...
Loading historical data...
Loading historical data...

Documentation

Showing up to 5 results
|